Regional Weather Roundup
Issued by NWS

Home | Current Version | Previous Version | Text Only | Print | Product List | Glossary On
Versions: 1 2 3 4 5 6 7 8 9 10 11 12 13 14 15 16 17 18 19 20 21 22 23 24 25 26 27 28 29 30 31 32 33 34 35 36 37 38 39 40 41 42 43 44 45 46 47 48 49 50
417
ASUS44 KLIX 231605
RWRLA
LOUISIANA WEATHER ROUNDUP
NATIONAL WEATHER SERVICE NEW ORLEANS LA
1000 AM CST SUN NOV 23 2014

NOTE: "FAIR" INDICATES FEW OR NO CLOUDS BELOW 12,000 FEET WITH NO
      SIGNIFICANT WEATHER AND/OR OBSTRUCTIONS TO VISIBILITY.
      SKY/WX - SKY CONDITION AND SIGNIFICANT WEATHER.
      TMP - AIR TEMPERATURE.    DP   - DEWPOINT TEMPERATURE.
      RH  - RELATIVE HUMIDITY.  PRES - PRESSURE.
      HX  - HEAT INDEX.         WCI  - WIND CHILL INDEX.

*  THESE STATIONS ARE NOT NWS OR FAA STATIONS AND ARE NOT UNDER
   NWS QUALITY CONTROL.

LAZ040-048-061>063-065-066-069-231700-
SOUTHEAST LOUISIANA

CITY           SKY/WX    TMP DP  RH WIND       PRES   REMARKS
N.O. AUDUBON   NOT AVBL
N.O. INTL ARPT CLOUDY    63  59  87 S21G28    29.69S
N.O. LAKEFRONT LGT RAIN  64  59  83 S20       29.69F
N.O. DOWNTOWN* CLOUDY    63  57  82 S14G22    29.70S
SLIDELL        LGT RAIN  64  61  90 S16G23    29.71S
BATON ROUGE    PTSUNNY   66  60  81 S20G28    29.67S
BOOTHVILLE     LGT RAIN  63  61  93 SW14      29.79F
BELLE CHASSE   LGT RAIN  62  59  90 S18G24    29.70F
BOGALUSA*        N/A     68  63  84 S9        29.67S
NEW ROADS*     CLOUDY    65  60  85 S15G23    29.67R
GONZALES*      FAIR      65  64  96 S9        29.69S
HAMMOND*       CLOUDY    64  59  82 S10G18    29.71R
HOUMA*         PTSUNNY   63  63 100 S14G22    29.73R
PORT FOURCHON* SUNNY     66  61  82 S16G26    29.77F FOG

$$

LAZ041-044-053-054-231700-
SOUTHWEST LOUISIANA

CITY           SKY/WX    TMP DP  RH WIND       PRES   REMARKS
LAKE CHARLES   PTSUNNY   66  62  87 SW15G23   29.66S
LAFAYETTE      PTSUNNY   67  63  87 SW13G23   29.67R
PATTERSON      MOSUNNY   70  63  78 SW16G24   29.73R
SALT POINT       N/A     69  60  73 SW10G20   29.71R
NEW IBERIA     CLOUDY    67  62  84 SW12      29.69S
CHENAULT AIRPK PTSUNNY   66  61  82 SW20G26   29.66S

$$

LAZ027-028-231700-
CENTRAL LOUISIANA

CITY           SKY/WX    TMP DP  RH WIND       PRES   REMARKS
FORT POLK      CLOUDY    61  60  94 SW10      29.62R
ALEXANDRIA INT LGT RAIN  63  60  90 SW16G23   29.60R FOG
ALEXANDRIA     CLOUDY    64  59  83 SW17G29   29.61R

$$

LAZ001-002-231700-
NORTHWEST LOUISIANA

CITY           SKY/WX    TMP DP  RH WIND       PRES   REMARKS
SHREVEPORT     CLOUDY    64  62  93 SW8       29.55F
BARKSDALE AFB  CLOUDY    62  62 100 SW7       29.55F
DTN SHREVEPORT CLOUDY    64  60  87 SW10      29.55F

$$

LAZ014-016-231700-
NORTHEAST LOUISIANA

CITY           SKY/WX    TMP DP  RH WIND       PRES   REMARKS
MONROE         LGT RAIN  64  62  93 SE9       29.45F FOG
TALLULAH       LGT RAIN  64  61  90 S17       29.57R

$$




USA.gov is the U.S. government's official web portal to all federal, state and local government web resources and services.